Location: Pulvis Stellarum Observatory
(41.6962°N, 71.4263°W)
Time: 03:58:37
(UTC-05:00)

Daily predictions for brighter satellites

Satellite Brightness Start Highest point End
(mag) Time Altitude Azimuth Time Altitude Azimuth Time Altitude Azimuth
Cosmos 2369 Rocket 4.1 02:59:34 24° NNE 02:59:34 24° NNE 03:01:41 10° NNE
ATLAS 5 CENTAUR R/B 3.5 03:28:12 28° NNE 03:28:12 28° NNE 03:30:45 10° NNE
Cosmos 1943 Rocket 2.9 03:33:33 46° NNE 03:33:33 46° NNE 03:37:23 10° NNE
Cosmos 676 Rocket 4.5 03:47:25 55° SE 03:47:25 55° SE 03:51:42 10° SSE
ADEOS II 2.3 03:42:57 10° NNE 03:47:39 68° NE 03:47:39 68° NE
CZ-4B R/B 3.2 03:44:39 10° NNE 03:50:12 84° ENE 03:50:12 84° ENE
Cosmos 1140 Rocket 4.4 03:46:39 10° N 03:51:43 47° ENE 03:56:44 10° SE
Cosmos 972 4.5 04:03:11 71° N 04:03:11 71° N 04:07:56 10° NNE
Okean-O 3.5 04:03:30 10° NNE 04:07:49 48° E 04:10:30 21° SSE
Lacrosse 5 rocket 3.4 04:08:34 17° NNE 04:09:15 17° NNE 04:11:45 10° ENE
Cosmos 1244 Rocket 4.4 04:03:49 10° N 04:10:06 88° E 04:16:15 10° S
Tiangong 1 3.4 04:16:41 23° ENE 04:16:41 23° ENE 04:17:58 10° ENE
Lacrosse 5 2.5 04:16:33 40° NNW 04:16:33 40° NNW 04:21:03 10° NE
Okean 2 Rocket 3.5 04:14:22 10° N 04:18:43 60° E 04:23:04 10° SSE
Cosmos 1703 Rocket 3.7 04:22:19 57° NNW 04:22:19 57° NNW 04:25:58 10° N
ATLAS CENTAUR R/B 4.0 04:21:01 39° WSW 04:22:17 42° SW 04:37:04 10° SSE
Meteor 1-14 Rocket 4.1 04:18:55 10° N 04:24:45 86° W 04:30:24 10° S
Cosmos 1782 4.0 04:25:27 10° SSE 04:29:12 42° E 04:32:58 10° NNE
Cosmos 1850 Rocket 4.4 04:23:53 10° NNW 04:29:13 64° ENE 04:34:27 10° SSE
CZ-4C R/B 2.0 04:27:47 49° WSW 04:29:15 73° NW 04:35:14 10° NNE
Cosmos 1656 Rocket 3.6 04:30:11 40° SW 04:32:14 68° WNW 04:37:56 10° NNE
RUBIN 8/PSLV 4.4 04:29:05 10° N 04:33:29 80° WNW 04:35:18 34° SSW
Cosmos 1954 Rocket 4.0 04:30:13 15° NNW 04:34:30 56° WSW 04:39:40 10° S
S3M 4.0 04:30:37 10° S 04:36:58 87° E 04:43:16 10° N
GEOS 3 Rocket 3.6 04:32:17 10° SSE 04:37:16 57° WSW 04:39:30 32° WNW
Meteor 1-26 Rocket 4.2 04:36:09 29° SW 04:38:52 55° WNW 04:44:21 10° N
Cosmos 2369 Rocket 3.9 04:41:22 16° NW 04:41:22 16° NW 04:44:16 10° N
USA 234 3.2 04:34:26 10° NE 04:41:00 85° NW 04:45:09 25° SW
Cosmos 2219 3.1 04:35:21 10° NNW 04:41:02 79° WSW 04:46:39 10° SSE
Cosmos 1420 Rocket 3.8 04:38:53 23° SSW 04:42:07 75° WNW 04:47:20 10° NNE
Cosmos 1553 Rocket 3.9 04:36:47 10° S 04:42:59 82° W 04:49:20 10° N
Cosmos 2227 Rocket 3.7 04:38:19 10° N 04:43:34 36° ENE 04:48:46 10° SE
Meteor 1-25 Rocket 4.2 04:38:11 10° N 04:44:03 84° W 04:49:53 10° S
Okean O Rocket 3.7 04:40:58 10° NNW 04:41:51 14° NNW 04:41:51 14° NNW
Meteor 1-31 Rocket 2.8 04:45:09 10° N 04:48:57 56° WNW 04:50:11 37° SW
COSMO-SKYMED 1 3.0 04:45:34 10° SSE 04:49:51 65° ENE 04:54:10 10° N
NOAA 6 4.1 04:45:49 10° NNE 04:51:00 82° ESE 04:56:08 10° SSW
Cosmos 1633 4.4 04:51:42 10° N 04:55:02 33° ENE 04:58:20 10° SE
Meteor 2-10 Rocket 3.9 04:54:31 29° WSW 04:56:05 36° WNW 05:00:48 10° N
ATLAS 3B R/B 3.0 04:54:19 10° SSW 05:01:54 80° ESE 05:09:14 10° NE
Okean 1-7 3.4 05:00:19 26° WSW 05:02:01 37° WNW 05:06:00 10° N
Cosmos 2221 Rocket 4.3 05:01:45 26° WSW 05:03:15 33° WNW 05:07:23 10° N
ERS-2 4.0 05:02:25 10° NNW 05:03:55 17° NW 05:03:55 17° NW
Thor Agena Rocket 3.8 05:04:17 10° S 05:09:16 44° W 05:14:12 10° NNW
Cosmos 1452 Rocket 4.4 05:07:57 23° W 05:09:47 28° WNW 05:14:18 10° N
Meteor 1-11 Rocket 4.4 05:05:03 10° N 05:10:57 61° ENE 05:16:44 10° SSE
ATLAS 5 CENTAUR R/B 3.7 05:09:45 14° NW 05:11:18 15° NNW 05:14:24 10° N
Meteor 1-10 Rocket 4.1 05:07:48 10° SSW 05:13:21 76° W 05:19:03 10° N
Cosmos 1709 Rocket 4.3 05:08:12 10° N 05:14:18 69° E 05:20:25 10° SSE
Cosmos 1110 Rocket 4.4 05:09:27 10° S 05:14:33 64° ESE 05:19:41 10° NNE
Cosmos 1943 Rocket 3.7 05:15:07 15° WNW 05:16:18 16° NW 05:19:43 10° N
CZ-4 R/B 3.9 05:18:03 10° NE 05:21:35 26° E 05:25:03 10° SSE
Cosmos 1741 Rocket 4.3 05:16:39 10° NNW 05:21:38 45° WSW 05:26:36 10° S
Radarsat Rocket 4.2 05:17:08 10° NNE 05:24:18 73° WNW 05:30:36 10° SSW
CZ-2C R/B 4.2 05:19:53 10° NNE 05:24:28 37° E 05:29:08 10° SSE
COSMOS 2455 4.1 05:19:19 10° S 05:25:00 45° ESE 05:30:42 10° NE
Abrixas 4.2 05:24:13 13° NW 05:26:13 23° N 05:28:37 10° ENE
ADEOS II 3.7 05:24:25 10° NNW 05:27:18 15° WNW 05:28:37 14° WNW
Meteor 1-28 Rocket 3.2 05:26:29 10° S 05:30:09 57° W 05:33:52 10° NNW
Cosmos 1300 Rocket 3.6 05:26:18 10° N 05:30:46 84° E 05:35:09 10° S
Cosmos 1745 Rocket 4.4 05:27:11 10° NNW 05:32:48 39° W 05:38:23 10° SSW
Cosmos 2315 Rocket 4.1 05:26:37 10° S 05:33:00 89° E 05:39:23 10° N
SKYMED 2 4.1 05:33:57 10° SSW 05:37:58 36° W 05:41:59 10° NNW
CSL-04 Rocket 3.8 05:33:27 10° NNE 05:38:53 83° ESE 05:44:21 10° SSW
Okean 3 4.0 05:37:39 10° S 05:41:55 67° E 05:46:13 10° NNE
Cosmos 1536 3.2 05:39:21 10° N 05:43:21 70° E 05:47:21 10° SSE
Okean-O 4.1 05:41:03 10° NNW 05:43:54 17° WNW 05:46:46 10° WSW
Cosmos 2082 3.7 05:39:55 10° NNW 05:45:37 85° WSW 05:51:15 10° SSE
Meteor 1-27 Rocket 3.8 05:42:08 10° SSW 05:47:53 66° WNW 05:53:46 10° N
Lacrosse 5 rocket 0.9 05:45:13 10° NW 05:48:49 73° SW 05:52:24 10° SE
Cosmos 1674 Rocket 3.8 05:44:44 10° SSW 05:49:01 49° WNW 05:53:21 10° N
Cosmos 1378 Rocket 3.6 05:45:03 10° S 05:49:26 85° E 05:53:48 10° N
Tiangong 1 0.9 05:48:11 10° W 05:51:05 74° N 05:54:02 10° E
BREEZE M DEB (TANK) 4.2 05:43:35 10° WNW 05:54:21 41° N 05:58:03 10° ENE
Cosmos 1606 4.0 05:53:40 10° SW 05:56:41 21° WNW 05:59:43 10° NNW
Cosmos 1602 4.3 05:55:44 10° NNW 05:59:25 37° W 06:03:04 10° SSW
Lacrosse 5 3.8 05:57:19 10° NW 06:00:28 16° NNW 06:03:37 10° NNE
PAYLOAD A 3.9 05:56:47 10° N 06:01:30 67° WNW 06:06:20 10° SSW
Cosmos 2369 3.7 05:55:56 10° SW 06:01:32 65° WNW 06:07:10 10° NNE
